星链-5247 (STARLINK-5247 )

导读

STARLINK-5247是美国太空探索技术公司(SpaceX)星链星座的卫星,星链旨在构建覆盖全球的低轨卫星互联网通信系统,该星于北京时间2022年10月28日发射入轨,运行在近地轨道,承担为全球偏远地区、海上、空中等场景提供宽带互联网接入服务的任务,是星链全球星座组网的组成单元之一。

基本信息
目录编号:
54203
目录名称:
STARLINK-5247
国际标识:
2022-141AY
轨道中心:
EARTH
卫星名称:
星链-5247
卫星全名:
星链-5247 (STARLINK-5247 )
卫星状态:
在轨 (已飞行1407 天)
发射日期:
2022-10-28 UTC
国别 :
美国 (US)
星等 :
--
轨道信息
数据来源 国际轨道数据
星历时间: 2026-09-02T15:46:38+0800
1天前
查看轨道信息
半长轴: 6837.885km
偏心率: 0.0001359
轨道倾角: 53.160°
近地点辐角 75.552°
升交点赤经 272.915°
平近点角 284.563°
近地点: 458.818km
远地点: 460.678km
周期: 93.787分钟
每日圈数: 15.353951
详细信息
固有亮度:
5
最大亮度:
2.5
卫星平台:
Starlink v1.5
覆盖范围:
全球
运营商:
太空探索技术公司
运营商所在国:
美国
制造商(研发单位):
太空探索技术公司
制造商所在国:
美国
使用方式:
暂无
卫星简介
星链(Starlink)计划是由太空探索技术公司(SpaceX)提出的一个巨型低轨卫星互联网星座项目,计划在2019年至2024年间在太空搭建由约1.2万颗卫星组成的“星链”网络,其中1584颗将部署在地球上空550千米处的近地轨道,并从2020年开始工作。该卫星仍在工作。
2D轨道图
3D轨道图
轨道高度分析图
轨道倾角分析图
轨道综合分析图
查看轨道综合分析图
交会数据列表
事件ID 空间交会对象 最接近时刻(TCA) 交会距离 交会风险概率(CRP) 交会风险指数(CRI) 操作
CDM_260905-054305-348105-420321
2026-09-05T
05:43:45+0000
2.415 km
极远距离
1.721852E-6 低风险 0.4
CDM_260904-214405-420306-826022
2026-09-04T
21:44:51+0000
2.385 km
极远距离
1.364762E-6 低风险 0.38
CDM_260904-085505-420306-809321
2026-09-04T
08:55:17+0000
2.974 km
极远距离
1.205175E-6 低风险 0.37
CDM_260905-081405-420306-662721
2026-09-05T
08:14:41+0000
2.961 km
极远距离
1.142533E-6 低风险 0.36
CDM_260904-053405-420306-583721
2026-09-04T
05:34:25+0000
2.659 km
极远距离
1.040966E-6 低风险 0.35
CDM_260903-153105-420306-167921
2026-09-03T
15:31:24+0000
2.734 km
极远距离
1.038096E-6 低风险 0.35
CDM_260903-182805-420306-937522
2026-09-03T
18:28:29+0000
2.688 km
极远距离
8.178922E-7 极低风险 0.33